SL-16 DEB, 22349

Orbit data source: Space-Track

SL-16 DEB, 22349 is space debris in LEO originally from a launch on Fri, 25 Dec 1992 UTC launched from the Tyuratam Missile And Space Complex (TTMTR). Debris objects in space refer to the collection of defunct objects orbiting the Earth. Examples of debris include non-operational satellites, rocket bodies, and fragments generated from explosions, collisions, or faulty payload assembly.

Loading next visibility...
SL-16 DEB details
Identifier
22349, 1992-093AN
Orbit
LEO
Last TLE update11 hours ago
Origin
Flag of CISRVSN RF (CIS)
ManufacturerUnknown
MissionSpacecraft
Bus & MotorUnknown
MassUnknown
Launch date (UTC)
1992-12-25 (32 years ago)
Launch vehicleUnknown
Launch site
Tyuratam Missile And Space Complex (TTMTR)
Object type
Payload
Rocket body
Debris
Shape & HBRUnknown
Radar Cross SectionSmall (<0.1 m²)

Expand to show TLE details & history

TLE from 11 hours ago
0 SL-16 DEB
1 22349U 92093AN  24361.29250846  .00000604  00000-0  52861-3 0  9990
2 22349  70.8206 301.5029 0184293 196.6127 317.0293 13.82195576608538
Epoch: 2024-12-26T07:01Z
Definitive object data (Epoch: 2024-12-26T07:01:12.73Z)
Latitude26.20116°
Longitude-88.87702°
Altitude861.007 km
Speed7.474 km/s
True Right ascension07h 26m 48s
True Declination26° 04' 02"
Sunlit
Object was in full shadow at TLE epoch
Visualization TLE readout
Latitude-61.3789°
Longitude-40.63272°
Altitude894.655 km
Speed7.447 km/s
Apparent Right ascension07h 25m 09s
Apparent Declination-58° 17' 30"
Sunlit
Object is in daylight
Visualization observer readout
Local Sidereal Time17:15:45
Azimuth217.42° SW
Elevation-62.429°
Doppler factor1
Orbital elements
Apogee altitude1,089.211 km
Perigee altitude818.956 km
Semi-major axis7,332.22 km
Eccentricity0.0184293
Inclination70.8206°
RAAN301.5029°
Arg. of periapsis196.6127°
True anomaly315.56531°
Mean anomaly317.0293°
Eccentric anomaly316.29978°
Mean motion3.45692 °/min
BSTAR0.00052861
Orbital period104.14 mins
Loading maneuver chart data...
Loading historical data...
Loading historical data...
Loading historical data...
Loading historical data...
Loading historical data...
Loading historical data...
Loading historical data...

SL-16 DEB Visibility forecast

Observer location: undefined°, undefined

Span
Click to sort rows by Start time (UTC) header in descending order
Start Az.
Max El. time (UTC)
Max El. Az.
Max El.
End time (UTC)
End Az.
9 mins2024-12-26 20:17:20.972Z143.055° SSE2024-12-26 20:21:20.972Z104.432° ESE20.822°2024-12-26 20:26:20.972Z54.177° ENE
12 mins2024-12-26 22:02:20.972Z216.953° SW2024-12-26 22:07:20.972Z273.505° WNW41.686°2024-12-26 22:14:20.972Z17.535° NNE
4 mins2024-12-26 23:54:20.972Z302.867° NW2024-12-26 23:55:20.972Z312.198° NW12.991°2024-12-26 23:58:20.972Z339.926° N
4 mins2024-12-27 05:26:20.972Z27.113° NE2024-12-27 05:28:20.972Z48.18° ENE12.761°2024-12-27 05:30:20.972Z68.776° E
9 mins2024-12-27 07:11:20.972Z341.596° N2024-12-27 07:15:20.972Z29.765° NE43.697°2024-12-27 07:20:20.972Z150.548° SSE
|